EW3925 Weather Reports


Display with metric or nautical units.
time (UTC)temp
F
wind
direction
speed
MPH
gust
MPH
rain 1hr
in
rain 24hr
in
rain mn
in
humidity
%
barometer
mb
20181114220115 44 95 0.0 0.0 0.00 0.00 0.00 80 1028.4
20181114214607 45 95 0.0 0.0 0.00 0.00 0.00 79 1028.3
20181114213117 45 95 0.0 0.0 0.00 0.00 0.00 78 1028.4
20181114211540 45 95 0.0 0.0 0.00 0.00 0.00 77 1028.3
20181114210123 46 95 0.0 0.0 0.00 0.00 0.00 77 1028.2
20181114204623 46 95 1.0 0.0 0.00 0.00 0.00 76 1028.3
20181114203112 46 95 0.0 0.0 0.00 0.00 0.00 75 1028.3
20181114201540 46 95 0.0 0.0 0.00 0.00 0.00 74 1028.3
20181114200123 47 95 0.0 0.0 0.00 0.00 0.00 73 1028.1
20181114194603 47 95 0.0 0.0 0.00 0.00 0.00 72 1028.1
20181114193031 47 79 2.0 0.0 0.00 0.00 0.00 72 1028.0
20181114191536 48 87 2.0 0.0 0.00 0.00 0.00 71 1028.0
20181114190118 48 74 4.0 0.0 0.00 0.00 0.00 70 1027.9
20181114184622 48 63 6.0 0.0 0.00 0.00 0.00 70 1027.9
20181114183037 48 72 4.0 0.0 0.00 0.00 0.00 70 1027.9
20181114181538 47 74 1.0 0.0 0.00 0.00 0.00 70 1027.9
20181114180026 47 71 1.0 0.0 0.00 0.00 0.00 68 1027.9
20181114174520 47 71 0.0 0.0 0.00 0.00 0.00 67 1027.8
20181114173038 48 71 0.0 0.0 0.00 0.00 0.00 66 1027.8
20181114171550 48 71 0.0 0.0 0.00 0.00 0.00 65 1027.8
20181114170020 48 71 0.0 0.0 0.00 0.00 0.00 63 1027.9
20181114164533 49 71 0.0 0.0 0.00 0.00 0.00 61 1027.7
20181114163014 50 71 1.0 0.0 0.00 0.00 0.00 59 1027.6
20181114161516 50 71 1.0 0.0 0.00 0.00 0.00 59 1027.8
20181114160027 50 63 2.0 0.0 0.00 0.00 0.00 58 1027.7
20181114154513 50 76 2.0 0.0 0.00 0.00 0.00 60 1027.6
20181114153020 50 84 1.0 0.0 0.00 0.00 0.00 59 1027.4
20181114151516 51 72 4.0 0.0 0.00 0.00 0.00 55 1027.4
20181114150037 50 63 4.0 0.0 0.00 0.00 0.00 58 1027.2
20181114144536 50 84 2.0 0.0 0.00 0.00 0.00 60 1027.1
20181114143016 51 88 2.0 0.0 0.00 0.00 0.00 60 1027.0
20181114141519 51 142 2.0 0.0 0.00 0.00 0.00 60 1026.8
20181114140007 51 107 2.0 0.0 0.00 0.00 0.00 62 1026.7
20181114134509 51 88 2.0 0.0 0.00 0.00 0.00 62 1026.6
20181114133013 52 84 3.0 0.0 0.00 0.00 0.00 60 1026.6
20181114131512 52 90 3.0 0.0 0.00 0.00 0.00 60 1026.4
20181114130013 52 116 2.0 0.0 0.00 0.00 0.00 59 1026.4
20181114124518 53 99 3.0 0.0 0.00 0.00 0.00 58 1026.4
20181114123010 54 108 3.0 0.0 0.00 0.00 0.00 57 1026.3
20181114121512 54 100 2.0 0.0 0.00 0.00 0.00 57 1026.4
20181114120008 54 130 2.0 0.0 0.00 0.00 0.00 56 1026.4
20181114114512 54 119 4.0 0.0 0.00 0.00 0.00 54 1026.6
20181114113006 55 138 5.0 0.0 0.00 0.00 0.00 52 1026.7
20181114111502 55 105 2.0 0.0 0.00 0.00 0.00 52 1026.9
20181114110003 55 78 3.0 0.0 0.00 0.00 0.00 53 1027.0
20181114104504 55 82 3.0 0.0 0.00 0.00 0.00 53 1027.1
20181114103007 54 107 4.0 0.0 0.00 0.00 0.00 56 1027.3
20181114101503 55 115 4.0 0.0 0.00 0.00 0.00 54 1027.3
20181114100204 55 159 3.0 0.0 0.00 0.00 0.00 52 1027.2
20181114094624 55 96 2.0 0.0 0.00 0.00 0.00 51 1027.3
20181114093135 54 97 3.0 0.0 0.00 0.00 0.00 51 1027.4
20181114090125 54 90 2.0 0.0 0.00 0.00 0.00 52 1027.6
20181114084639 54 59 3.0 0.0 0.00 0.00 0.00 55 1027.5
20181114083138 53 76 3.0 0.0 0.00 0.00 0.00 55 1027.5
20181114081636 53 128 2.0 0.0 0.00 0.00 0.00 57 1027.6
20181114080120 52 145 5.0 0.0 0.00 0.00 0.00 57 1027.5
20181114074607 52 78 4.0 0.0 0.00 0.00 0.00 61 1027.4
20181114073112 52 75 2.0 0.0 0.00 0.00 0.00 63 1027.4
20181114071607 52 69 3.0 0.0 0.00 0.00 0.00 63 1027.2
20181114070106 52 57 1.0 0.0 0.00 0.00 0.00 67 1027.2
20181114064533 51 309 2.0 0.0 0.00 0.00 0.00 70 1027.0
20181114063038 49 105 1.0 0.0 0.00 0.00 0.00 74 1026.9
20181114061531 48 223 0.0 0.0 0.00 0.00 0.00 75 1026.7
20181114060019 48 223 1.0 0.0 0.00 0.00 0.00 76 1026.6
20181114054507 48 210 1.0 0.0 0.00 0.00 0.00 76 1026.3
20181114053005 47 196 0.0 0.0 0.00 0.00 0.00 79 1026.3
20181114051506 47 170 1.0 0.0 0.00 0.00 0.00 80 1026.4
20181114050149 47 164 1.0 0.0 0.00 0.00 0.00 81 1026.0
20181114044618 47 152 0.0 0.0 0.00 0.00 0.00 82 1026.0
20181114043125 47 152 0.0 0.0 0.00 0.00 0.00 83 1026.0
20181114041622 48 152 0.0 0.0 0.00 0.00 0.00 83 1025.9
20181114040318 48 152 0.0 0.0 0.00 0.00 0.00 82 1025.8
20181114034701 49 152 0.0 0.0 0.00 0.00 0.00 81 1025.8
20181114033140 49 152 1.0 0.0 0.00 0.00 0.00 80 1025.7
20181114031642 50 121 1.0 0.0 0.00 0.00 0.00 78 1025.7
20181114030205 51 86 0.0 0.0 0.00 0.00 0.00 76 1025.7
20181114024624 51 86 1.0 0.0 0.00 0.00 0.00 76 1025.7
20181114023131 52 78 0.0 0.0 0.00 0.00 0.00 75 1025.6
20181114021706 52 74 2.0 0.0 0.00 0.00 0.00 75 1025.5
20181114020203 52 89 3.0 0.0 0.00 0.00 0.00 76 1025.4
20181114014609 51 101 2.0 0.0 0.00 0.00 0.00 80 1025.5
20181114013126 49 96 1.0 0.0 0.00 0.00 0.00 83 1025.4
20181114011609 49 82 1.0 0.0 0.00 0.00 0.00 83 1025.6
20181114010115 49 80 0.0 0.0 0.00 0.00 0.00 82 1025.6
20181114004657 49 79 0.0 0.0 0.00 0.00 0.00 80 1025.5
20181114003137 49 270 0.0 0.0 0.00 0.00 0.00 82 1025.5
20181114001616 48 269 0.0 0.0 0.00 0.00 0.00 83 1025.3
20181114000055 48 269 0.0 0.0 0.00 0.00 0.00 83 1025.2
20181113234605 48 269 0.0 0.0 0.00 0.00 0.00 83 1025.2
20181113233126 48 269 0.0 0.0 0.00 0.00 0.00 83 1025.2
20181113231631 48 269 0.0 0.0 0.00 0.00 0.00 83 1025.0
20181113230055 48 269 0.0 0.0 0.00 0.00 0.00 83 1025.2
20181113224557 48 269 0.0 0.0 0.00 0.00 0.00 82 1024.9
20181113223050 48 269 0.0 0.0 0.00 0.00 0.00 81 1024.9
20181113221604 49 269 0.0 0.0 0.00 0.00 0.00 80 1024.6